* Astronomy

Members Login
Post Info TOPIC: Comet C/2010 L5 (WISE)


L

Posts: 131433
Date:
RE: Comet C/2010 L5 (WISE)
Permalink  
 


Orbital elements:
C/2010 L5 (WISE)
T 2010 Apr. 23.8414 TT MPC
q 0.800821 (2000.0) P Q
n 0.0301441 Peri. 215.9845 +0.9438195 -0.2242497
a 10.225099 Node 206.4301 +0.0532621 -0.6216806
e 0.921681 Incl. 146.9531 -0.3261408 -0.7504834
P 32.7
From 27 observations 2010 June 14-July 15.

MPEC 2010 - O21


__________________


L

Posts: 131433
Date:
Permalink  
 

Orbital elements:
C/2010 L5 (WISE)
T 2010 Apr. 23.4123 TT MPC
q 0.794736 (2000.0) P Q
n 0.0372133 Peri. 215.2153 +0.9469251 -0.2109542
a 8.885275 Node 206.4561 +0.0615172 -0.6216763
e 0.910556 Incl. 147.0140 -0.3155130 -0.7543321
P 26.5
From 19 observations 2010 June 14-July 14.

MPEC 2010 - N63


__________________


L

Posts: 131433
Date:
Permalink  
 

Orbital elements:
C/2010 L5 (WISE)
T 2010 Apr. 26.626 TT MPC
q 0.83835 (2000.0) P Q
Peri. 220.563 +0.921155 -0.304221
Node 206.152 +0.002663 -0.618758
e 1.0 Incl. 146.583 -0.389187 -0.724285
From 9 observations 2010 June 14-23.

MPEC 2010 - M50


Comet C/2010 L5 (WISE) was discovered by the WISE satellite on the 14th June, 2010.
The preliminary orbital elements of the comet  indicate a perihelion passage on the 26th April, 2010, at a distance of 0.84 AU from the Sun.

__________________
Page 1 of 1  sorted by
Quick Reply

Please log in to post quick replies.



Create your own FREE Forum
Report Abuse
Powered by ActiveBoard